Time,TemperatureF,DewpointF,PressureIn,WindDirection,WindDirectionDegrees,WindSpeedMPH,WindSpeedGustMPH,Humidity,HourlyPrecipIn,Conditions,Clouds,dailyrainin,SoftwareType,DateUTC
2013-02-24 00:03:00,47.3,23.6,29.76,SW,222,0.0,5.0,39,0.00,,,-99.99,Weather View 32 v60,2013-02-24 05:03:00,
2013-02-24 00:08:00,47.3,23.6,29.76,West,266,3.0,5.0,39,0.00,,,-99.99,Weather View 32 v60,2013-02-24 05:08:00,
2013-02-24 00:13:00,47.3,23.6,29.76,West,265,0.0,5.0,39,0.00,,,-99.99,Weather View 32 v60,2013-02-24 05:13:00,
2013-02-24 00:18:00,47.3,22.9,29.76,West,265,3.0,5.0,38,0.00,,,-99.99,Weather View 32 v60,2013-02-24 05:18:00,
2013-02-24 00:28:00,47.3,22.9,29.76,West,270,3.0,5.0,38,0.00,,,-99.99,Weather View 32 v60,2013-02-24 05:28:00,
2013-02-24 00:33:00,47.3,23.6,29.76,West,270,0.0,5.0,39,0.00,,,-99.99,Weather View 32 v60,2013-02-24 05:33:00,
2013-02-24 00:38:00,47.3,23.6,29.76,West,270,3.0,5.0,39,0.00,,,-99.99,Weather View 32 v60,2013-02-24 05:38:00,
2013-02-24 00:48:00,47.3,23.6,29.76,West,270,3.0,4.0,39,0.00,,,-99.99,Weather View 32 v60,2013-02-24 05:48:00,
2013-02-24 00:56:00,47.3,23.6,29.76,West,269,0.0,4.0,39,0.00,,,-99.99,Weather View 32 v60,2013-02-24 05:56:00,
2013-02-24 01:03:00,47.3,23.6,29.76,West,270,4.0,4.0,39,0.00,,,-99.99,Weather View 32 v60,2013-02-24 06:03:00,
2013-02-24 01:08:00,47.1,23.4,29.76,NNW,341,4.0,4.0,39,0.00,,,-99.99,Weather View 32 v60,2013-02-24 06:08:00,
2013-02-24 01:18:00,46.9,23.2,29.76,WNW,287,4.0,4.0,39,0.00,,,-99.99,Weather View 32 v60,2013-02-24 06:18:00,
2013-02-24 01:23:00,46.9,23.2,29.76,West,279,3.0,4.0,39,0.00,,,-99.99,Weather View 32 v60,2013-02-24 06:23:00,
2013-02-24 01:28:00,46.9,23.2,29.76,West,279,0.0,4.0,39,0.00,,,-99.99,Weather View 32 v60,2013-02-24 06:28:00,
2013-02-24 01:33:00,46.9,23.2,29.76,West,279,0.0,4.0,39,0.00,,,-99.99,Weather View 32 v60,2013-02-24 06:33:00,
2013-02-24 01:43:00,46.8,23.1,29.76,SW,233,0.0,4.0,39,0.00,,,-99.99,Weather View 32 v60,2013-02-24 06:43:00,
2013-02-24 01:48:00,46.8,23.1,29.76,SW,233,0.0,4.0,39,0.00,,,-99.99,Weather View 32 v60,2013-02-24 06:48:00,
2013-02-24 01:57:00,46.8,23.1,29.76,WSW,238,5.0,7.0,39,0.00,,,-99.99,Weather View 32 v60,2013-02-24 06:57:00,
2013-02-24 02:03:00,46.6,23.5,29.76,WNW,301,0.0,7.0,40,0.00,,,-99.99,Weather View 32 v60,2013-02-24 07:03:00,
2013-02-24 02:08:00,46.6,23.5,29.76,WNW,287,0.0,7.0,40,0.00,,,-99.99,Weather View 32 v60,2013-02-24 07:08:00,
2013-02-24 02:14:00,46.6,23.5,29.76,WNW,287,0.0,7.0,40,0.00,,,-99.99,Weather View 32 v60,2013-02-24 07:14:00,
2013-02-24 02:23:00,46.6,23.5,29.76,WNW,300,0.0,7.0,40,0.00,,,-99.99,Weather View 32 v60,2013-02-24 07:23:00,
2013-02-24 02:28:00,46.4,23.4,29.76,WNW,301,3.0,7.0,40,0.00,,,-99.99,Weather View 32 v60,2013-02-24 07:28:00,
2013-02-24 02:38:00,46.4,23.4,29.76,WNW,301,0.0,7.0,40,0.00,,,-99.99,Weather View 32 v60,2013-02-24 07:38:00,
2013-02-24 02:43:00,46.4,23.4,29.76,WNW,301,0.0,7.0,40,0.00,,,-99.99,Weather View 32 v60,2013-02-24 07:43:00,
2013-02-24 02:48:00,46.4,23.4,29.76,WNW,301,0.0,7.0,40,0.00,,,-99.99,Weather View 32 v60,2013-02-24 07:48:00,
2013-02-24 02:57:00,46.2,23.2,29.76,WNW,301,0.0,5.0,40,0.00,,,-99.99,Weather View 32 v60,2013-02-24 07:57:00,
2013-02-24 03:03:00,46.4,23.4,29.76,WNW,300,0.0,4.0,40,0.00,,,-99.99,Weather View 32 v60,2013-02-24 08:03:00,
2013-02-24 03:08:00,46.2,23.2,29.76,WNW,300,0.0,4.0,40,0.00,,,-99.99,Weather View 32 v60,2013-02-24 08:08:00,
2013-02-24 03:18:00,46.0,23.0,29.76,WNW,301,0.0,4.0,40,0.00,,,-99.99,Weather View 32 v60,2013-02-24 08:18:00,
2013-02-24 03:23:00,46.0,23.0,29.76,WNW,300,0.0,3.0,40,0.00,,,-99.99,Weather View 32 v60,2013-02-24 08:23:00,
2013-02-24 03:33:00,46.0,23.0,29.76,SSW,205,0.0,4.0,40,0.00,,,-99.99,Weather View 32 v60,2013-02-24 08:33:00,
2013-02-24 03:38:00,45.9,22.9,29.76,SSW,205,0.0,4.0,40,0.00,,,-99.99,Weather View 32 v60,2013-02-24 08:38:00,
2013-02-24 03:43:00,45.9,22.9,29.76,SSW,205,3.0,4.0,40,0.00,,,-99.99,Weather View 32 v60,2013-02-24 08:43:00,
2013-02-24 03:53:00,45.5,23.1,29.76,SSW,205,0.0,4.0,41,0.00,,,-99.99,Weather View 32 v60,2013-02-24 08:53:00,
2013-02-24 04:03:00,45.1,22.8,29.76,SSW,205,0.0,4.0,41,0.00,,,-99.99,Weather View 32 v60,2013-02-24 09:03:00,
2013-02-24 04:08:00,45.1,22.8,29.76,SSW,205,0.0,4.0,41,0.00,,,-99.99,Weather View 32 v60,2013-02-24 09:08:00,
2013-02-24 04:13:00,45.0,22.6,29.76,SSW,205,0.0,4.0,41,0.00,,,-99.99,Weather View 32 v60,2013-02-24 09:13:00,
2013-02-24 04:23:00,44.8,22.5,29.76,SSW,205,0.0,4.0,41,0.00,,,-99.99,Weather View 32 v60,2013-02-24 09:23:00,
2013-02-24 04:28:00,44.6,22.3,29.76,East,81,0.0,4.0,41,0.00,,,-99.99,Weather View 32 v60,2013-02-24 09:28:00,
2013-02-24 04:38:00,44.6,22.3,29.76,East,82,0.0,4.0,41,0.00,,,-99.99,Weather View 32 v60,2013-02-24 09:38:00,
2013-02-24 04:43:00,44.6,22.3,29.76,East,81,3.0,4.0,41,0.00,,,-99.99,Weather View 32 v60,2013-02-24 09:43:00,
2013-02-24 04:48:00,44.4,22.2,29.76,SE,139,0.0,4.0,41,0.00,,,-99.99,Weather View 32 v60,2013-02-24 09:48:00,
2013-02-24 04:53:00,44.2,22.0,29.76,SE,128,0.0,4.0,41,0.00,,,-99.99,Weather View 32 v60,2013-02-24 09:53:00,
2013-02-24 04:58:00,44.1,21.8,29.76,SE,127,0.0,4.0,41,0.00,,,-99.99,Weather View 32 v60,2013-02-24 09:58:00,
2013-02-24 05:08:00,44.1,21.8,29.76,SE,128,0.0,4.0,41,0.00,,,-99.99,Weather View 32 v60,2013-02-24 10:08:00,
2013-02-24 05:13:00,44.1,21.8,29.76,SE,127,0.0,4.0,41,0.00,,,-99.99,Weather View 32 v60,2013-02-24 10:13:00,
2013-02-24 05:23:00,44.1,21.8,29.79,SE,127,0.0,4.0,41,0.00,,,-99.99,Weather View 32 v60,2013-02-24 10:23:00,
2013-02-24 05:28:00,44.1,21.8,29.79,SE,127,0.0,4.0,41,0.00,,,-99.99,Weather View 32 v60,2013-02-24 10:28:00,
2013-02-24 05:38:00,43.9,21.7,29.79,SE,127,0.0,4.0,41,0.00,,,-99.99,Weather View 32 v60,2013-02-24 10:38:00,
2013-02-24 05:43:00,43.9,21.7,29.79,SE,127,4.0,4.0,41,0.00,,,-99.99,Weather View 32 v60,2013-02-24 10:43:00,
2013-02-24 05:53:00,43.5,21.9,29.79,SE,127,0.0,4.0,42,0.00,,,-99.99,Weather View 32 v60,2013-02-24 10:53:00,
2013-02-24 05:58:00,43.3,21.8,29.79,SE,127,3.0,4.0,42,0.00,,,-99.99,Weather View 32 v60,2013-02-24 10:58:00,
2013-02-24 06:03:00,43.0,21.4,29.79,SE,128,0.0,4.0,42,0.00,,,-99.99,Weather View 32 v60,2013-02-24 11:03:00,
2013-02-24 06:13:00,42.3,20.2,29.79,SE,128,0.0,4.0,41,0.00,,,-99.99,Weather View 32 v60,2013-02-24 11:13:00,
2013-02-24 06:18:00,41.9,19.9,29.79,SE,127,0.0,4.0,41,0.00,,,-99.99,Weather View 32 v60,2013-02-24 11:18:00,
2013-02-24 06:28:00,41.7,20.3,29.79,SE,127,3.0,4.0,42,0.00,,,-99.99,Weather View 32 v60,2013-02-24 11:28:00,
2013-02-24 06:33:00,41.5,20.1,29.79,SE,127,0.0,4.0,42,0.00,,,-99.99,Weather View 32 v60,2013-02-24 11:33:00,
2013-02-24 06:38:00,41.2,19.8,29.79,SE,127,3.0,4.0,42,0.00,,,-99.99,Weather View 32 v60,2013-02-24 11:38:00,
2013-02-24 06:48:00,41.0,19.6,29.82,SE,127,0.0,4.0,42,0.00,,,-99.99,Weather View 32 v60,2013-02-24 11:48:00,
2013-02-24 06:58:00,40.6,19.3,29.82,SE,127,0.0,4.0,42,0.00,,,-99.99,Weather View 32 v60,2013-02-24 11:58:00,
2013-02-24 07:03:00,40.5,19.1,29.82,SE,128,0.0,4.0,42,0.00,,,-99.99,Weather View 32 v60,2013-02-24 12:03:00,
2013-02-24 07:13:00,40.5,19.1,29.82,SE,127,0.0,4.0,42,0.00,,,-99.99,Weather View 32 v60,2013-02-24 12:13:00,
2013-02-24 07:18:00,40.5,19.1,29.82,SE,127,0.0,4.0,42,0.00,,,-99.99,Weather View 32 v60,2013-02-24 12:18:00,
2013-02-24 07:24:00,40.5,19.1,29.82,SE,127,0.0,4.0,42,0.00,,,-99.99,Weather View 32 v60,2013-02-24 12:24:00,
2013-02-24 07:33:00,40.5,19.7,29.82,SE,128,0.0,4.0,43,0.00,,,-99.99,Weather View 32 v60,2013-02-24 12:33:00,
2013-02-24 07:38:00,40.6,19.9,29.82,SE,127,0.0,4.0,43,0.00,,,-99.99,Weather View 32 v60,2013-02-24 12:38:00,
2013-02-24 07:48:00,40.8,20.0,29.82,SE,128,0.0,4.0,43,0.00,,,-99.99,Weather View 32 v60,2013-02-24 12:48:00,
2013-02-24 07:59:00,41.0,20.2,29.82,SE,127,0.0,0.0,43,0.00,,,-99.99,Weather View 32 v60,2013-02-24 12:59:00,
2013-02-24 08:08:00,41.4,21.1,29.82,SE,127,0.0,0.0,44,0.00,,,-99.99,Weather View 32 v60,2013-02-24 13:08:00,
2013-02-24 08:18:00,42.1,21.7,29.82,SE,128,0.0,0.0,44,0.00,,,-99.99,Weather View 32 v60,2013-02-24 13:18:00,
2013-02-24 08:23:00,42.1,21.7,29.82,SE,127,0.0,0.0,44,0.00,,,-99.99,Weather View 32 v60,2013-02-24 13:23:00,
2013-02-24 08:33:00,42.4,22.0,29.85,SE,128,0.0,0.0,44,0.00,,,-99.99,Weather View 32 v60,2013-02-24 13:33:00,
2013-02-24 08:43:00,42.6,22.7,29.85,SE,127,0.0,3.0,45,0.00,,,-99.99,Weather View 32 v60,2013-02-24 13:43:00,
2013-02-24 08:48:00,42.8,22.9,29.85,SE,128,0.0,3.0,45,0.00,,,-99.99,Weather View 32 v60,2013-02-24 13:48:00,
2013-02-24 08:53:00,43.3,23.4,29.85,SE,127,0.0,3.0,45,0.00,,,-99.99,Weather View 32 v60,2013-02-24 13:53:00,
2013-02-24 09:01:00,43.9,23.9,29.85,SE,127,0.0,3.0,45,0.00,,,-99.99,Weather View 32 v60,2013-02-24 14:01:00,
2013-02-24 09:08:00,45.3,26.2,29.85,SE,127,0.0,3.0,47,0.00,,,-99.99,Weather View 32 v60,2013-02-24 14:08:00,
2013-02-24 09:13:00,46.0,26.9,29.85,SE,127,0.0,3.0,47,0.00,,,-99.99,Weather View 32 v60,2013-02-24 14:13:00,
2013-02-24 09:23:00,47.3,28.1,29.85,SE,127,0.0,3.0,47,0.00,,,-99.99,Weather View 32 v60,2013-02-24 14:23:00,
2013-02-24 09:33:00,48.2,28.9,29.85,SE,127,3.0,3.0,47,0.00,,,-99.99,Weather View 32 v60,2013-02-24 14:33:00,
2013-02-24 09:38:00,48.9,30.1,29.85,SE,128,4.0,4.0,48,0.00,,,-99.99,Weather View 32 v60,2013-02-24 14:38:00,
2013-02-24 09:43:00,49.6,30.2,29.85,SE,127,0.0,4.0,47,0.00,,,-99.99,Weather View 32 v60,2013-02-24 14:43:00,
2013-02-24 09:48:00,50.2,30.7,29.85,SE,143,5.0,5.0,47,0.00,,,-99.99,Weather View 32 v60,2013-02-24 14:48:00,
2013-02-24 10:01:00,51.1,31.5,29.85,ESE,119,3.0,5.0,47,0.00,,,-99.99,Weather View 32 v60,2013-02-24 15:01:00,
2013-02-24 10:08:00,52.5,32.8,29.85,SE,134,0.0,5.0,47,0.00,,,-99.99,Weather View 32 v60,2013-02-24 15:08:00,
2013-02-24 10:18:00,53.8,34.0,29.85,SE,134,4.0,5.0,47,0.00,,,-99.99,Weather View 32 v60,2013-02-24 15:18:00,
2013-02-24 10:28:00,54.9,34.4,29.85,SE,132,0.0,5.0,46,0.00,,,-99.99,Weather View 32 v60,2013-02-24 15:28:00,
2013-02-24 10:38:00,55.9,34.9,29.85,SE,144,0.0,5.0,45,0.00,,,-99.99,Weather View 32 v60,2013-02-24 15:38:00,
2013-02-24 10:48:00,56.8,34.5,29.85,SE,126,4.0,6.0,43,0.00,,,-99.99,Weather View 32 v60,2013-02-24 15:48:00,
2013-02-24 10:53:00,57.2,34.3,29.85,SSE,147,4.0,6.0,42,0.00,,,-99.99,Weather View 32 v60,2013-02-24 15:53:00,
2013-02-24 10:59:00,57.6,34.0,29.85,SE,134,3.0,6.0,41,0.00,,,-99.99,Weather View 32 v60,2013-02-24 15:59:00,
2013-02-24 11:09:00,58.5,32.9,29.85,SE,133,0.0,6.0,38,0.00,,,-99.99,Weather View 32 v60,2013-02-24 16:09:00,
2013-02-24 11:18:00,59.5,32.5,29.85,SE,124,0.0,6.0,36,0.00,,,-99.99,Weather View 32 v60,2013-02-24 16:18:00,
2013-02-24 11:23:00,60.1,32.3,29.85,SE,139,4.0,6.0,35,0.00,,,-99.99,Weather View 32 v60,2013-02-24 16:23:00,
2013-02-24 11:28:00,60.4,31.9,29.85,SSW,203,3.0,7.0,34,0.00,,,-99.99,Weather View 32 v60,2013-02-24 16:28:00,
2013-02-24 11:38:00,61.0,29.3,29.85,ESE,116,5.0,7.0,30,0.00,,,-99.99,Weather View 32 v60,2013-02-24 16:38:00,
2013-02-24 11:43:00,61.2,27.7,29.85,SE,146,5.0,7.0,28,0.00,,,-99.99,Weather View 32 v60,2013-02-24 16:43:00,
2013-02-24 11:48:00,61.5,27.2,29.85,SE,125,4.0,7.0,27,0.00,,,-99.99,Weather View 32 v60,2013-02-24 16:48:00,
2013-02-24 11:58:00,62.4,26.1,29.85,ESE,110,0.0,7.0,25,0.00,,,-99.99,Weather View 32 v60,2013-02-24 16:58:00,
2013-02-24 12:03:00,62.6,25.2,29.85,SSE,152,5.0,7.0,24,0.00,,,-99.99,Weather View 32 v60,2013-02-24 17:03:00,
2013-02-24 12:08:00,63.0,25.5,29.85,SE,134,6.0,7.0,24,0.00,,,-99.99,Weather View 32 v60,2013-02-24 17:08:00,
2013-02-24 12:13:00,63.1,25.7,29.85,SSE,150,5.0,7.0,24,0.00,,,-99.99,Weather View 32 v60,2013-02-24 17:13:00,
2013-02-24 12:19:00,63.3,24.8,29.85,SE,125,4.0,7.0,23,0.00,,,-99.99,Weather View 32 v60,2013-02-24 17:19:00,
2013-02-24 12:28:00,64.2,22.2,29.85,ESE,120,5.0,7.0,20,0.00,,,-99.99,Weather View 32 v60,2013-02-24 17:28:00,
2013-02-24 12:33:00,64.8,20.2,29.85,SE,135,7.0,7.0,18,0.00,,,-99.99,Weather View 32 v60,2013-02-24 17:33:00,
2013-02-24 12:38:00,65.1,20.5,29.85,SE,136,4.0,7.0,18,0.00,,,-99.99,Weather View 32 v60,2013-02-24 17:38:00,
2013-02-24 12:43:00,65.5,19.4,29.85,SE,133,6.0,7.0,17,0.00,,,-99.99,Weather View 32 v60,2013-02-24 17:43:00,
2013-02-24 12:48:00,65.8,16.8,29.82,ESE,105,3.0,7.0,15,0.00,,,-99.99,Weather View 32 v60,2013-02-24 17:48:00,
2013-02-24 12:53:00,66.2,17.1,29.82,NNE,27,4.0,7.0,15,0.00,,,-99.99,Weather View 32 v60,2013-02-24 17:53:00,
2013-02-24 13:03:00,66.9,17.7,29.82,SE,146,5.0,7.0,15,0.00,,,-99.99,Weather View 32 v60,2013-02-24 18:03:00,
2013-02-24 13:13:00,67.6,18.2,29.82,SE,135,6.0,8.0,15,0.00,,,-99.99,Weather View 32 v60,2013-02-24 18:13:00,
2013-02-24 13:18:00,68.0,18.5,29.82,SW,231,3.0,8.0,15,0.00,,,-99.99,Weather View 32 v60,2013-02-24 18:18:00,
2013-02-24 13:28:00,68.5,19.0,29.82,SSE,147,4.0,8.0,15,0.00,,,-99.99,Weather View 32 v60,2013-02-24 18:28:00,
2013-02-24 13:38:00,68.7,19.1,29.82,East,90,3.0,8.0,15,0.00,,,-99.99,Weather View 32 v60,2013-02-24 18:38:00,
2013-02-24 13:43:00,68.9,19.2,29.82,ESE,122,3.0,8.0,15,0.00,,,-99.99,Weather View 32 v60,2013-02-24 18:43:00,
2013-02-24 13:48:00,69.3,17.9,29.79,SE,125,4.0,8.0,14,0.00,,,-99.99,Weather View 32 v60,2013-02-24 18:48:00,
2013-02-24 13:58:00,69.6,18.2,29.79,ENE,64,7.0,8.0,14,0.00,,,-99.99,Weather View 32 v60,2013-02-24 18:58:00,
2013-02-24 14:03:00,69.8,18.4,29.79,SE,143,7.0,8.0,14,0.00,,,-99.99,Weather View 32 v60,2013-02-24 19:03:00,
2013-02-24 14:08:00,70.0,18.5,29.79,SE,141,4.0,8.0,14,0.00,,,-99.99,Weather View 32 v60,2013-02-24 19:08:00,
2013-02-24 14:13:00,70.2,18.6,29.79,SE,132,4.0,8.0,14,0.00,,,-99.99,Weather View 32 v60,2013-02-24 19:13:00,
2013-02-24 14:23:00,70.5,18.9,29.79,SSE,151,0.0,8.0,14,0.00,,,-99.99,Weather View 32 v60,2013-02-24 19:23:00,
2013-02-24 14:28:00,70.9,19.2,29.79,SE,129,5.0,8.0,14,0.00,,,-99.99,Weather View 32 v60,2013-02-24 19:28:00,
2013-02-24 14:38:00,70.7,19.1,29.79,SE,138,5.0,8.0,14,0.00,,,-99.99,Weather View 32 v60,2013-02-24 19:38:00,
2013-02-24 14:43:00,71.2,19.5,29.79,SE,134,4.0,8.0,14,0.00,,,-99.99,Weather View 32 v60,2013-02-24 19:43:00,
2013-02-24 14:48:00,71.4,19.6,29.79,SSE,156,4.0,8.0,14,0.00,,,-99.99,Weather View 32 v60,2013-02-24 19:48:00,
2013-02-24 15:03:00,72.0,20.1,29.79,SE,133,4.0,8.0,14,0.00,,,-99.99,Weather View 32 v60,2013-02-24 20:03:00,
2013-02-24 15:08:00,72.3,20.3,29.79,SE,126,4.0,8.0,14,0.00,,,-99.99,Weather View 32 v60,2013-02-24 20:08:00,
2013-02-24 15:18:00,72.1,20.2,29.79,NNW,343,4.0,8.0,14,0.00,,,-99.99,Weather View 32 v60,2013-02-24 20:18:00,
2013-02-24 15:23:00,72.0,20.1,29.79,SSE,151,3.0,8.0,14,0.00,,,-99.99,Weather View 32 v60,2013-02-24 20:23:00,
2013-02-24 15:28:00,71.4,19.6,29.79,SE,140,4.0,8.0,14,0.00,,,-99.99,Weather View 32 v60,2013-02-24 20:28:00,
2013-02-24 15:38:00,71.8,19.9,29.79,SE,136,0.0,8.0,14,0.00,,,-99.99,Weather View 32 v60,2013-02-24 20:38:00,
2013-02-24 15:43:00,71.8,19.9,29.79,SE,143,4.0,7.0,14,0.00,,,-99.99,Weather View 32 v60,2013-02-24 20:43:00,
2013-02-24 15:53:00,71.8,19.9,29.79,SSW,201,0.0,6.0,14,0.00,,,-99.99,Weather View 32 v60,2013-02-24 20:53:00,
2013-02-24 15:58:00,71.8,19.9,29.79,SSE,155,3.0,6.0,14,0.00,,,-99.99,Weather View 32 v60,2013-02-24 20:58:00,
2013-02-24 16:03:00,71.4,19.6,29.79,SE,127,4.0,6.0,14,0.00,,,-99.99,Weather View 32 v60,2013-02-24 21:03:00,
2013-02-24 16:13:00,70.7,19.1,29.79,West,281,3.0,5.0,14,0.00,,,-99.99,Weather View 32 v60,2013-02-24 21:13:00,
2013-02-24 16:18:00,70.2,18.6,29.79,SW,225,0.0,5.0,14,0.00,,,-99.99,Weather View 32 v60,2013-02-24 21:18:00,
2013-02-24 16:28:00,69.4,18.1,29.79,WNW,292,6.0,7.0,14,0.00,,,-99.99,Weather View 32 v60,2013-02-24 21:28:00,
2013-02-24 16:33:00,69.3,17.9,29.79,WNW,290,3.0,7.0,14,0.00,,,-99.99,Weather View 32 v60,2013-02-24 21:33:00,
2013-02-24 16:43:00,69.1,17.8,29.79,North,351,4.0,7.0,14,0.00,,,-99.99,Weather View 32 v60,2013-02-24 21:43:00,
2013-02-24 16:48:00,68.9,17.6,29.79,WNW,282,4.0,7.0,14,0.00,,,-99.99,Weather View 32 v60,2013-02-24 21:48:00,
2013-02-24 16:58:00,68.0,18.5,29.79,West,267,4.0,8.0,15,0.00,,,-99.99,Weather View 32 v60,2013-02-24 21:58:00,
2013-02-24 17:03:00,67.8,18.4,29.79,WNW,297,6.0,8.0,15,0.00,,,-99.99,Weather View 32 v60,2013-02-24 22:03:00,
2013-02-24 17:08:00,67.8,18.4,29.79,WNW,287,4.0,8.0,15,0.00,,,-99.99,Weather View 32 v60,2013-02-24 22:08:00,
2013-02-24 17:18:00,67.8,18.4,29.79,NW,304,3.0,8.0,15,0.00,,,-99.99,Weather View 32 v60,2013-02-24 22:18:00,
2013-02-24 17:23:00,67.6,18.2,29.79,NW,307,4.0,8.0,15,0.00,,,-99.99,Weather View 32 v60,2013-02-24 22:23:00,
2013-02-24 17:33:00,66.9,17.7,29.79,West,267,4.0,8.0,15,0.00,,,-99.99,Weather View 32 v60,2013-02-24 22:33:00,
2013-02-24 17:43:00,66.6,17.4,29.79,WSW,256,4.0,8.0,15,0.00,,,-99.99,Weather View 32 v60,2013-02-24 22:43:00,
2013-02-24 17:48:00,66.4,17.2,29.79,NNW,332,4.0,8.0,15,0.00,,,-99.99,Weather View 32 v60,2013-02-24 22:48:00,
2013-02-24 17:59:00,65.7,16.7,29.79,West,267,4.0,7.0,15,0.00,,,-99.99,Weather View 32 v60,2013-02-24 22:59:00,
2013-02-24 18:06:00,65.1,16.2,29.79,WNW,293,3.0,7.0,15,0.00,,,-99.99,Weather View 32 v60,2013-02-24 23:06:00,
2013-02-24 18:13:00,63.9,15.2,29.79,West,266,3.0,7.0,15,0.00,,,-99.99,Weather View 32 v60,2013-02-24 23:13:00,
2013-02-24 18:18:00,63.0,16.0,29.82,West,273,0.0,7.0,16,0.00,,,-99.99,Weather View 32 v60,2013-02-24 23:18:00,
2013-02-24 18:28:00,61.5,14.8,29.82,West,273,0.0,6.0,16,0.00,,,-99.99,Weather View 32 v60,2013-02-24 23:28:00,
2013-02-24 18:33:00,60.8,14.2,29.82,West,273,0.0,6.0,16,0.00,,,-99.99,Weather View 32 v60,2013-02-24 23:33:00,
2013-02-24 18:43:00,59.5,14.6,29.82,West,273,0.0,6.0,17,0.00,,,-99.99,Weather View 32 v60,2013-02-24 23:43:00,
2013-02-24 18:48:00,58.8,14.0,29.82,West,273,0.0,6.0,17,0.00,,,-99.99,Weather View 32 v60,2013-02-24 23:48:00,
2013-02-24 18:58:00,57.7,13.1,29.82,WNW,293,0.0,5.0,17,0.00,,,-99.99,Weather View 32 v60,2013-02-24 23:58:00,
2013-02-24 19:07:00,57.2,12.7,29.82,WNW,293,0.0,4.0,17,0.00,,,-99.99,Weather View 32 v60,2013-02-25 00:07:00,
2013-02-24 19:13:00,56.8,12.4,29.82,WNW,300,0.0,4.0,17,0.00,,,-99.99,Weather View 32 v60,2013-02-25 00:13:00,
2013-02-24 19:18:00,56.7,12.3,29.82,WNW,300,0.0,3.0,17,0.00,,,-99.99,Weather View 32 v60,2013-02-25 00:18:00,
2013-02-24 19:28:00,55.9,11.7,29.82,WNW,300,0.0,3.0,17,0.00,,,-99.99,Weather View 32 v60,2013-02-25 00:28:00,
2013-02-24 19:38:00,55.0,10.9,29.82,WNW,300,0.0,3.0,17,0.00,,,-99.99,Weather View 32 v60,2013-02-25 00:38:00,
2013-02-24 19:43:00,54.5,10.5,29.82,WNW,300,0.0,3.0,17,0.00,,,-99.99,Weather View 32 v60,2013-02-25 00:43:00,
2013-02-24 19:53:00,53.8,11.2,29.85,WNW,300,0.0,3.0,18,0.00,,,-99.99,Weather View 32 v60,2013-02-25 00:53:00,
2013-02-24 19:59:00,53.4,10.9,29.85,WNW,300,0.0,3.0,18,0.00,,,-99.99,Weather View 32 v60,2013-02-25 00:59:00,
2013-02-24 20:07:00,53.1,10.6,29.85,WNW,300,0.0,3.0,18,0.00,,,-99.99,Weather View 32 v60,2013-02-25 01:07:00,
2013-02-24 20:13:00,51.8,9.6,29.85,WNW,300,0.0,4.0,18,0.00,,,-99.99,Weather View 32 v60,2013-02-25 01:13:00,
2013-02-24 20:23:00,51.3,9.1,29.85,WNW,300,0.0,4.0,18,0.00,,,-99.99,Weather View 32 v60,2013-02-25 01:23:00,
2013-02-24 20:33:00,50.4,9.6,29.85,WNW,300,0.0,4.0,19,0.00,,,-99.99,Weather View 32 v60,2013-02-25 01:33:00,
2013-02-24 20:38:00,50.4,9.6,29.85,WNW,300,0.0,4.0,19,0.00,,,-99.99,Weather View 32 v60,2013-02-25 01:38:00,
2013-02-24 20:43:00,50.4,9.6,29.85,WNW,300,0.0,4.0,19,0.00,,,-99.99,Weather View 32 v60,2013-02-25 01:43:00,
2013-02-24 20:53:00,50.4,9.6,29.85,WNW,300,0.0,4.0,19,0.00,,,-99.99,Weather View 32 v60,2013-02-25 01:53:00,
2013-02-24 20:58:00,50.2,9.4,29.85,WNW,300,0.0,4.0,19,0.00,,,-99.99,Weather View 32 v60,2013-02-25 01:58:00,
2013-02-24 21:03:00,49.8,9.1,29.85,WNW,300,0.0,4.0,19,0.00,,,-99.99,Weather View 32 v60,2013-02-25 02:03:00,
2013-02-24 21:08:00,49.5,8.8,29.85,WNW,300,0.0,3.0,19,0.00,,,-99.99,Weather View 32 v60,2013-02-25 02:08:00,
2013-02-24 21:18:00,48.6,8.1,29.85,WNW,300,0.0,3.0,19,0.00,,,-99.99,Weather View 32 v60,2013-02-25 02:18:00,
2013-02-24 21:28:00,48.2,7.8,29.85,WNW,300,0.0,0.0,19,0.00,,,-99.99,Weather View 32 v60,2013-02-25 02:28:00,
2013-02-24 21:33:00,48.0,7.7,29.88,WNW,300,0.0,0.0,19,0.00,,,-99.99,Weather View 32 v60,2013-02-25 02:33:00,
2013-02-24 21:43:00,47.8,7.5,29.88,WNW,300,0.0,0.0,19,0.00,,,-99.99,Weather View 32 v60,2013-02-25 02:43:00,
2013-02-24 21:53:00,47.7,7.4,29.88,WNW,300,0.0,0.0,19,0.00,,,-99.99,Weather View 32 v60,2013-02-25 02:53:00,
2013-02-24 22:03:00,47.3,7.1,29.88,WNW,300,0.0,0.0,19,0.00,,,-99.99,Weather View 32 v60,2013-02-25 03:03:00,
2013-02-24 22:09:00,46.9,6.8,29.88,WNW,300,0.0,0.0,19,0.00,,,-99.99,Weather View 32 v60,2013-02-25 03:09:00,
2013-02-24 22:18:00,46.4,6.3,29.88,WNW,300,0.0,0.0,19,0.00,,,-99.99,Weather View 32 v60,2013-02-25 03:18:00,
2013-02-24 22:23:00,46.4,6.3,29.88,WNW,300,0.0,0.0,19,0.00,,,-99.99,Weather View 32 v60,2013-02-25 03:23:00,
2013-02-24 22:28:00,46.0,6.0,29.88,WNW,300,0.0,0.0,19,0.00,,,-99.99,Weather View 32 v60,2013-02-25 03:28:00,
2013-02-24 22:33:00,45.9,5.9,29.88,WNW,300,0.0,0.0,19,0.00,,,-99.99,Weather View 32 v60,2013-02-25 03:33:00,
2013-02-24 22:43:00,45.7,5.7,29.88,WNW,300,0.0,0.0,19,0.00,,,-99.99,Weather View 32 v60,2013-02-25 03:43:00,
2013-02-24 22:48:00,45.5,6.7,29.88,WNW,300,0.0,0.0,20,0.00,,,-99.99,Weather View 32 v60,2013-02-25 03:48:00,
2013-02-24 22:53:00,45.3,6.5,29.88,NW,325,0.0,0.0,20,0.00,,,-99.99,Weather View 32 v60,2013-02-25 03:53:00,
2013-02-24 22:59:00,45.3,6.5,29.88,NNE,26,0.0,0.0,20,0.00,,,-99.99,Weather View 32 v60,2013-02-25 03:59:00,
2013-02-24 23:08:00,45.1,6.4,29.85,NNE,26,0.0,0.0,20,0.00,,,-99.99,Weather View 32 v60,2013-02-25 04:08:00,
2013-02-24 23:13:00,45.1,6.4,29.85,NNE,26,0.0,0.0,20,0.00,,,-99.99,Weather View 32 v60,2013-02-25 04:13:00,
2013-02-24 23:23:00,45.1,6.4,29.85,NNE,26,0.0,0.0,20,0.00,,,-99.99,Weather View 32 v60,2013-02-25 04:23:00,
2013-02-24 23:28:00,45.3,6.5,29.85,NNE,26,0.0,0.0,20,0.00,,,-99.99,Weather View 32 v60,2013-02-25 04:28:00,
2013-02-24 23:38:00,45.3,6.5,29.88,NNE,26,0.0,0.0,20,0.00,,,-99.99,Weather View 32 v60,2013-02-25 04:38:00,
2013-02-24 23:48:00,45.1,6.4,29.88,NNE,26,0.0,0.0,20,0.00,,,-99.99,Weather View 32 v60,2013-02-25 04:48:00,
2013-02-24 23:58:00,45.0,6.2,29.88,NNE,26,0.0,0.0,20,0.00,,,-99.99,Weather View 32 v60,2013-02-25 04:58:00,